Weather reports worldwide

Advertisment
Bluefield, wv, United States of America (2072067): temperature & dewpoint: 10.01.2018 14:00:00 - 16.01.2018 14:00:00 (EST)Bluefield, wv, United States of America (2072067): wind speed & gusts: 10.01.2018 14:00:00 - 16.01.2018 14:00:00 (EST)Bluefield, wv, United States of America (2072067): wind direction: 10.01.2018 14:00:00 - 16.01.2018 14:00:00 (EST)Bluefield, wv, United States of America (2072067): reduced air pressure: 10.01.2018 14:00:00 - 16.01.2018 14:00:00 (EST)Bluefield, wv, United States of America (2072067): visibility: 10.01.2018 14:00:00 - 16.01.2018 14:00:00 (EST)Bluefield, wv, United States of America (2072067): precipitation: 10.01.2018 14:00:00 - 16.01.2018 14:00:00 (EST)
Date & Time tt [°C] td [°C] ff [km/h] ff [kn] fx [km/h] fx [kn] dd ppp [hPa] vv [km] rr [mm]
16.01.2018 14:00:00 2,8 -5,6 15 8 - - SW 1025,2 16 -
16.01.2018 13:00:00 2,8 -5,6 18 10 - - SW 1025,4 16 -
16.01.2018 12:00:00 1,7 -5,6 13 7 - - WSW 1026,9 16 -
16.01.2018 11:00:00 0,6 -6,1 15 8 - - W 1028,3 16 -
16.01.2018 10:00:00 0,6 -6,7 0 0 - - N 1027,9 16 -
16.01.2018 09:00:00 0,0 -6,7 9 5 - - WSW 1028,1 16 -
16.01.2018 08:00:00 -0,6 -6,7 5 3 - - WSW 1027,5 16 -
16.01.2018 07:00:00 -0,6 -6,7 11 6 - - SW 1027,5 16 -
16.01.2018 06:00:00 -0,6 -7,2 11 6 - - SW 1027,1 16 -
16.01.2018 05:00:00 -1,1 -7,2 9 5 - - SSW 1026,8 16 -
16.01.2018 04:00:00 -1,7 -7,2 11 6 - - SW 1027,2 16 -
16.01.2018 03:00:00 -1,1 -7,2 11 6 - - SW 1026,8 16 -
16.01.2018 02:00:00 -1,7 -6,7 15 8 - - SW 1027,5 16 -
16.01.2018 01:00:00 -0,6 -6,7 9 5 - - SW 1026,9 16 -
16.01.2018 00:00:00 0,0 -6,7 9 5 - - SSW 1027,6 16 -
15.01.2018 23:00:00 -1,7 -6,7 8 4 - - WSW 1028,6 16 -
15.01.2018 22:00:00 -0,6 -6,7 8 4 - - SW 1028,1 16 -
15.01.2018 21:00:00 -1,1 -6,7 8 4 - - SW 1028,2 16 -
15.01.2018 20:00:00 -1,1 -6,7 0 0 - - N 1028,5 16 -
15.01.2018 19:00:00 -1,1 -6,1 9 5 - - WSW 1028,6 16 -
15.01.2018 18:00:00 -1,1 -6,7 13 7 - - SW 1028,2 16 -
15.01.2018 17:00:00 0,0 -6,1 21 11 - - WSW 1027,9 16 -
15.01.2018 16:00:00 0,6 -6,7 21 11 - - SW 1027,2 16 -
15.01.2018 15:00:00 0,6 -7,2 24 13 - - SW 1027,5 16 -
15.01.2018 14:00:00 -0,6 -9,4 18 10 - - S 1027,5 16 -
15.01.2018 13:00:00 -1,1 -9,4 18 10 - - WSW 1028,5 16 -
15.01.2018 12:00:00 -3,9 -11,7 8 4 - - - 1029,6 16 -
15.01.2018 11:00:00 -5,6 -12,2 5 3 - - E 1031,3 16 -
15.01.2018 10:00:00 -6,7 -12,2 0 0 - - N 1031,8 16 -
15.01.2018 09:00:00 -8,9 -13,9 0 0 - - N 1031,8 16 -
15.01.2018 08:00:00 -9,4 -13,9 0 0 - - N 1031,4 16 -
15.01.2018 07:00:00 -10,0 -15,6 0 0 - - N 1030,9 16 -
15.01.2018 06:00:00 -10,6 -16,1 5 3 - - ESE 1030,4 16 -
15.01.2018 05:00:00 -10,0 -16,1 0 0 - - N 1030,3 16 -
15.01.2018 04:00:00 -10,0 -15,6 8 4 - - - 1030,5 16 -
15.01.2018 03:00:00 -10,0 -15,6 13 7 - - ESE 1030,8 16 -
15.01.2018 02:00:00 -9,4 -15,6 8 4 - - - 1030,6 16 -
15.01.2018 01:00:00 -8,9 -15,6 8 4 - - - 1030,9 16 -
15.01.2018 00:00:00 -8,9 -15,6 13 7 - - SSE 1031,6 16 -
14.01.2018 23:00:00 -8,9 -15,6 - - - - - 1032,3 16 -
14.01.2018 22:00:00 -8,3 -15,0 - - - - - 1032,5 16 -
14.01.2018 21:00:00 -7,8 -15,0 5 3 - - - 1032,6 16 -
14.01.2018 20:00:00 -7,8 -14,4 5 3 - - ESE 1033,4 16 -
14.01.2018 19:00:00 -7,2 -13,9 5 3 - - E 1033,0 16 -
14.01.2018 18:00:00 -6,7 -13,9 0 0 - - N 1032,6 16 -
14.01.2018 17:00:00 -6,7 -15,0 0 0 - - N 1032,5 16 -
14.01.2018 16:00:00 -6,1 -16,7 8 4 - - NE 1032,1 16 -
14.01.2018 15:00:00 -6,7 -16,1 8 4 - - N 1032,3 16 -
14.01.2018 14:00:00 -7,2 -15,6 0 0 - - N 1033,2 16 -
14.01.2018 13:00:00 -8,9 -15,6 0 0 - - N 1034,6 16 -
14.01.2018 12:00:00 -10,0 -16,1 0 0 - - N 1035,6 16 -
14.01.2018 11:00:00 -11,7 -16,7 0 0 - - N 1036,4 16 -
14.01.2018 10:00:00 -13,3 -17,2 0 0 - - N 1036,9 16 -
14.01.2018 09:00:00 -14,4 -17,2 5 3 - - NE 1036,4 16 -
14.01.2018 08:00:00 -14,4 -17,2 9 5 - - N 1035,8 16 -
14.01.2018 07:00:00 -14,4 -17,8 8 4 - - - 1035,6 16 0,0
14.01.2018 06:00:00 -13,9 -17,8 9 5 - - NW 1034,9 16 0,0
14.01.2018 05:00:00 -13,9 -17,2 8 4 - - NW 1034,8 16 0,0
14.01.2018 04:00:00 -13,3 -17,2 8 4 - - WNW 1034,3 16 0,0
14.01.2018 03:00:00 -13,3 -17,2 5 3 - - - 1034,2 16 0,0
14.01.2018 02:00:00 -13,3 -17,2 5 3 - - - 1033,8 16 0,0
14.01.2018 01:00:00 -13,3 -17,2 9 5 - - NNW 1033,4 15 0,0
14.01.2018 00:00:00 -12,8 -16,7 9 5 - - NNW 1033,4 16 0,0
13.01.2018 23:00:00 -12,2 -15,6 15 8 - - N 1033,2 11 0,0
13.01.2018 22:00:00 -12,2 -16,1 11 6 - - NW 1032,8 16 0,0
13.01.2018 21:00:00 -11,7 -15,6 11 6 - - NNW 1031,9 8 0,0
13.01.2018 20:00:00 -11,1 -15,0 13 7 - - NW 1031,1 8 0,0
13.01.2018 19:00:00 -11,1 -14,4 11 6 - - NW 1030,1 8 0,0
13.01.2018 18:00:00 -10,6 -14,4 11 6 - - NW 1028,8 10 0,0
13.01.2018 17:00:00 -10,6 -14,4 18 10 - - WNW 1027,9 15 0,0
13.01.2018 16:00:00 -10,0 -13,9 15 8 - - WNW 1026,6 13 0,0
13.01.2018 15:00:00 -8,9 -12,8 18 10 - - WNW 1025,3 6 0,0
13.01.2018 14:00:00 -9,4 -12,8 18 10 - - NW 1024,9 3,2 0,0
13.01.2018 13:00:00 -9,4 -12,8 18 10 - - WNW 1024,1 3,2 0,0
13.01.2018 12:00:00 -8,9 -12,2 15 8 - - WNW 1023,1 2,0 0,0
13.01.2018 11:00:00 -8,9 -12,2 16 9 - - NW 1022,4 6 0,0
13.01.2018 10:00:00 -8,9 -11,1 24 13 - - NW 1019,9 2,8 0,0
13.01.2018 09:00:00 -8,3 -11,1 13 7 - - NW 1018,2 3,2 0,0
13.01.2018 08:00:00 -8,3 -10,6 21 11 - - NW 1017,2 10 0,0
13.01.2018 07:00:00 -7,8 -10,0 15 8 - - NNW 1015,4 4,8 0,0
13.01.2018 06:00:00 -7,8 -10,6 22 12 - - NW 1014,1 4,8 0,0
13.01.2018 05:00:00 -6,1 -8,3 22 12 - - NW 1012,1 10 0,0
13.01.2018 04:00:00 -6,1 -7,8 11 6 - - - 1010,6 3,2 0,0
13.01.2018 03:00:00 -4,4 -6,1 18 10 50 27 NNW 1008,5 15 0,0
13.01.2018 02:00:00 -2,8 -4,4 24 13 50 27 NW 1006,8 4,0 0,0
13.01.2018 01:00:00 -1,1 -2,2 26 14 52 28 WNW 1004,9 3,2 0,0
13.01.2018 00:00:00 1,1 -0,6 22 12 52 28 W 1003,9 15 0,0
12.01.2018 23:00:00 2,8 1,7 22 12 63 34 WNW 1002,6 16 0,8
12.01.2018 22:00:00 6,1 5,0 34 18 63 34 W 999,3 8 0,5
12.01.2018 21:00:00 8,9 7,8 5 3 - - WSW 999,2 16 0,5
12.01.2018 20:00:00 9,4 8,3 9 5 - - WNW 1000,4 13 1,5
12.01.2018 19:00:00 9,4 8,3 21 11 48 26 W 1001,2 10 9,9
12.01.2018 18:00:00 10,6 8,9 26 14 48 26 W 999,7 2,4 5,3
12.01.2018 17:00:00 13,3 11,7 0 0 - - N 1000,3 16 0,3
12.01.2018 16:00:00 13,3 11,7 5 3 - - SE 1001,3 16 1,3
12.01.2018 15:00:00 15,0 10,6 15 8 - - SW 1001,6 16 0,0
12.01.2018 14:00:00 14,4 12,2 11 6 - - - 1002,4 16 0,0
12.01.2018 13:00:00 14,4 12,2 9 5 - - SSW 1003,7 4,8 0,5
12.01.2018 12:00:00 17,2 11,7 9 5 - - - 1005,0 16 -
12.01.2018 11:00:00 16,7 11,1 18 10 - - SSW 1006,1 16 -
12.01.2018 10:00:00 15,0 10,6 16 9 - - S 1007,2 16 -
12.01.2018 09:00:00 15,6 10,6 21 11 - - S 1007,3 16 -
12.01.2018 08:00:00 14,4 11,7 11 6 - - SSE 1007,4 16 1,8
12.01.2018 07:00:00 13,9 12,8 13 7 - - SSW 1008,2 11 1,5
12.01.2018 06:00:00 14,4 12,8 13 7 - - SSE 1007,5 15 0,3
12.01.2018 05:00:00 15,0 12,2 22 12 - - SSE 1007,9 16 0,0
12.01.2018 04:00:00 15,0 12,2 11 6 - - - 1008,5 16 0,0
12.01.2018 03:00:00 15,0 12,2 16 9 50 27 S 1009,4 16 0,0
12.01.2018 02:00:00 15,0 12,2 22 12 54 29 S 1009,7 16 0,0
12.01.2018 01:00:00 14,4 12,2 21 11 48 26 S 1010,8 16 0,3
12.01.2018 00:00:00 14,4 12,2 22 12 - - ESE 1012,1 10 0,0
11.01.2018 23:00:00 13,9 12,2 13 7 48 26 SSE 1013,4 11 0,3
11.01.2018 22:00:00 13,3 11,7 18 10 - - SSE 1014,6 13 0,3
11.01.2018 21:00:00 13,9 11,7 16 9 48 26 SE 1015,3 15 0,3
11.01.2018 20:00:00 13,3 11,1 18 10 59 32 S 1016,4 6 0,3
11.01.2018 19:00:00 13,3 11,1 - - - - - 1017,1 - 0,3
11.01.2018 18:00:00 13,3 11,1 13 7 - - SSE 1017,0 6 0,0
11.01.2018 17:00:00 13,3 11,1 31 17 50 27 S 1017,7 15 0,5
11.01.2018 16:00:00 13,3 11,1 21 11 - - SSE 1018,2 16 0,3
11.01.2018 15:00:00 12,2 10,6 11 6 - - - 1018,3 8 -
11.01.2018 14:00:00 12,8 10,6 - - - - - 1019,1 16 0,0
11.01.2018 13:00:00 11,7 10,0 21 11 - - E 1020,6 10 0,3
11.01.2018 12:00:00 10,6 9,4 11 6 - - - 1022,8 11 0,3
11.01.2018 11:00:00 10,6 8,9 9 5 - - - 1023,9 16 -
11.01.2018 10:00:00 10,0 8,9 8 4 - - - 1024,0 16 -
11.01.2018 09:00:00 10,0 8,3 11 6 - - - 1023,8 8 -
11.01.2018 08:00:00 10,0 8,3 5 3 - - - 1023,1 16 -
11.01.2018 07:00:00 10,0 7,8 - - - - - 1022,7 16 -
11.01.2018 06:00:00 9,4 7,8 13 7 - - SE 1022,8 15 -
11.01.2018 05:00:00 8,3 7,2 9 5 - - - 1023,0 16 -
11.01.2018 04:00:00 8,3 6,7 15 8 - - SSW 1023,0 16 -
11.01.2018 03:00:00 8,3 6,1 - - - - - 1022,8 16 -
11.01.2018 02:00:00 7,8 3,9 15 8 - - ESE 1022,7 16 -
11.01.2018 01:00:00 7,8 2,2 21 11 - - SSW 1023,2 16 -
11.01.2018 00:00:00 7,8 1,1 21 11 50 27 SSE 1023,9 16 -
10.01.2018 23:00:00 8,3 1,7 13 7 - - SSE 1024,3 16 -
10.01.2018 22:00:00 9,4 4,4 22 12 48 26 S 1024,2 16 -
10.01.2018 21:00:00 9,4 5,6 22 12 - - SSE 1024,0 16 -
10.01.2018 20:00:00 8,9 5,6 24 13 - - SSE 1023,9 16 -
10.01.2018 19:00:00 8,3 5,0 15 8 - - S 1023,8 16 -
10.01.2018 18:00:00 8,9 5,0 16 9 - - S 1023,5 16 -
10.01.2018 17:00:00 9,4 5,0 22 12 - - S 1023,0 16 -
10.01.2018 16:00:00 9,4 4,4 18 10 - - SSE 1023,2 16 -
10.01.2018 15:00:00 8,9 4,4 13 7 - - SSE 1023,2 16 -
10.01.2018 14:00:00 8,9 4,4 21 11 - - S 1024,1 16 -

tt = temperature
td = dewpoint
ff = wind speed
fx = gusts
dd = wind direction
ppp = reduced air pressure
vv = visibility
rr = precipitation

Next stations